Year,Month,Day,Hour,Minute,Value (Times are PST for temperature in C)
2020,12,06,09,12,9.60
2020,12,06,09,13,9.60
2020,12,06,09,14,9.60
2020,12,06,09,15,9.70
2020,12,06,09,16,9.70
2020,12,06,09,17,9.70
2020,12,06,09,18,9.70
2020,12,06,09,19,9.70
2020,12,06,09,20,9.70
2020,12,06,09,21,9.70
2020,12,06,09,22,9.80
2020,12,06,09,23,9.80
2020,12,06,09,24,9.80
2020,12,06,09,25,9.80
2020,12,06,09,26,9.80
2020,12,06,09,27,9.80
2020,12,06,09,28,9.80
2020,12,06,09,29,9.80
2020,12,06,09,30,9.90
2020,12,06,09,31,9.90
2020,12,06,09,32,9.90
2020,12,06,09,33,9.90
2020,12,06,09,34,9.90
2020,12,06,09,35,9.90
2020,12,06,09,36,9.90
2020,12,06,09,37,9.90
2020,12,06,09,38,9.90
2020,12,06,09,39,9.90
2020,12,06,09,40,9.90
2020,12,06,09,41,9.90
2020,12,06,09,42,10.00
2020,12,06,09,43,10.00
2020,12,06,09,44,10.00
2020,12,06,09,45,10.00
2020,12,06,09,46,10.00
2020,12,06,09,47,10.10
2020,12,06,09,48,10.10
2020,12,06,09,49,10.10
2020,12,06,09,50,10.10
2020,12,06,09,51,10.10
2020,12,06,09,52,10.10
2020,12,06,09,53,10.10
2020,12,06,09,54,10.10
2020,12,06,09,55,10.10
2020,12,06,09,56,10.20
2020,12,06,09,57,10.20
2020,12,06,09,58,10.20
2020,12,06,09,59,10.20
2020,12,06,10,00,10.20
2020,12,06,10,01,10.20
2020,12,06,10,02,10.20
2020,12,06,10,03,10.20
2020,12,06,10,04,10.30
2020,12,06,10,05,10.30
2020,12,06,10,06,10.30
2020,12,06,10,07,10.30
2020,12,06,10,08,10.30
2020,12,06,10,09,10.30
2020,12,06,10,10,10.30
2020,12,06,10,11,10.30
2020,12,06,10,12,10.30
2020,12,06,10,13,10.30
2020,12,06,10,14,10.30
2020,12,06,10,15,10.30
2020,12,06,10,16,10.30
2020,12,06,10,17,10.30
2020,12,06,10,18,10.30
2020,12,06,10,19,10.30
2020,12,06,10,20,10.30
2020,12,06,10,21,10.30
2020,12,06,10,22,10.30
2020,12,06,10,23,10.30
2020,12,06,10,24,10.30
2020,12,06,10,25,10.30
2020,12,06,10,26,10.30
2020,12,06,10,27,10.30
2020,12,06,10,28,10.30
2020,12,06,10,29,10.30
2020,12,06,10,30,10.30
2020,12,06,10,31,10.30
2020,12,06,10,32,10.30
2020,12,06,10,33,10.30
2020,12,06,10,34,10.40
2020,12,06,10,35,10.40
2020,12,06,10,36,10.40
2020,12,06,10,37,10.40
2020,12,06,10,38,10.40
2020,12,06,10,39,10.40
2020,12,06,10,40,10.40
2020,12,06,10,41,10.40
2020,12,06,10,42,10.40
2020,12,06,10,43,10.40
2020,12,06,10,44,10.40
2020,12,06,10,45,10.40
2020,12,06,10,46,10.40
2020,12,06,10,47,10.40
2020,12,06,10,48,10.40
2020,12,06,10,49,10.40
2020,12,06,10,50,10.40
2020,12,06,10,51,10.40
2020,12,06,10,52,10.50
2020,12,06,10,53,10.50
2020,12,06,10,54,10.50
2020,12,06,10,55,10.50
2020,12,06,10,56,10.50
2020,12,06,10,57,10.50
2020,12,06,10,58,10.50
2020,12,06,10,59,10.50
2020,12,06,11,00,10.40
2020,12,06,11,01,10.50
2020,12,06,11,02,10.40
2020,12,06,11,03,10.40
2020,12,06,11,04,10.40
2020,12,06,11,05,10.50
2020,12,06,11,06,10.50
2020,12,06,11,07,10.50
2020,12,06,11,08,10.50
2020,12,06,11,09,10.50
2020,12,06,11,10,10.50
2020,12,06,11,11,10.60
2020,12,06,11,12,10.60
2020,12,06,11,13,10.60
2020,12,06,11,14,10.60
2020,12,06,11,15,10.60
2020,12,06,11,16,10.60
2020,12,06,11,17,10.60
2020,12,06,11,18,10.60
2020,12,06,11,19,10.60
2020,12,06,11,20,10.60
2020,12,06,11,21,10.60
2020,12,06,11,22,10.70
2020,12,06,11,23,10.70
2020,12,06,11,24,10.70
2020,12,06,11,25,10.70
2020,12,06,11,26,10.70
2020,12,06,11,27,10.60
2020,12,06,11,28,10.60
2020,12,06,11,29,10.50
2020,12,06,11,30,10.50
2020,12,06,11,31,10.40
2020,12,06,11,32,10.40
2020,12,06,11,33,10.40
2020,12,06,11,34,10.40
2020,12,06,11,35,10.40
2020,12,06,11,36,10.40
2020,12,06,11,37,10.30
2020,12,06,11,38,10.30
2020,12,06,11,39,10.20
2020,12,06,11,40,10.20
2020,12,06,11,41,10.10
2020,12,06,11,42,10.10
2020,12,06,11,43,10.10
2020,12,06,11,44,10.10
2020,12,06,11,45,10.00
2020,12,06,11,46,10.00
2020,12,06,11,47,10.00
2020,12,06,11,48,10.00
2020,12,06,11,49,10.00
2020,12,06,11,50,10.00
2020,12,06,11,51,10.00
2020,12,06,11,52,10.00
2020,12,06,11,53,10.00
2020,12,06,11,54,10.00
2020,12,06,11,55,10.00
2020,12,06,11,56,10.00
2020,12,06,11,57,10.00
2020,12,06,11,58,10.00
2020,12,06,11,59,10.00
2020,12,06,12,00,10.00
2020,12,06,12,01,10.10
2020,12,06,12,02,10.10
2020,12,06,12,03,10.10
2020,12,06,12,04,10.10
2020,12,06,12,05,10.10
2020,12,06,12,06,10.10
2020,12,06,12,07,10.20
2020,12,06,12,08,10.10
2020,12,06,12,09,10.10
2020,12,06,12,10,10.10
2020,12,06,12,11,10.10
2020,12,06,12,12,10.10
2020,12,06,12,13,10.10
2020,12,06,12,14,10.10
2020,12,06,12,15,10.10
2020,12,06,12,16,10.10
2020,12,06,12,17,10.10
2020,12,06,12,18,10.20
2020,12,06,12,19,10.20
2020,12,06,12,20,10.20
2020,12,06,12,21,10.30
2020,12,06,12,22,10.40
2020,12,06,12,23,10.40
2020,12,06,12,24,10.40
2020,12,06,12,25,10.40
2020,12,06,12,26,10.50
2020,12,06,12,27,10.60
2020,12,06,12,28,10.70
2020,12,06,12,29,10.70
2020,12,06,12,30,10.80
2020,12,06,12,31,10.80
2020,12,06,12,32,10.80
2020,12,06,12,33,10.80
2020,12,06,12,34,10.80
2020,12,06,12,35,10.90
2020,12,06,12,36,10.90
2020,12,06,12,37,10.90
2020,12,06,12,38,11.00
2020,12,06,12,39,11.00
2020,12,06,12,40,11.00
2020,12,06,12,41,11.00
2020,12,06,12,42,11.00
2020,12,06,12,43,11.00
2020,12,06,12,44,11.00
2020,12,06,12,45,11.00
2020,12,06,12,46,11.10
2020,12,06,12,47,11.10
2020,12,06,12,48,11.10
2020,12,06,12,49,11.10
2020,12,06,12,50,11.10
2020,12,06,12,51,11.00
2020,12,06,12,52,11.10
2020,12,06,12,53,11.10
2020,12,06,12,54,11.10
2020,12,06,12,55,11.00
2020,12,06,12,56,11.00
2020,12,06,12,57,10.90
2020,12,06,12,58,10.90
2020,12,06,12,59,10.90
2020,12,06,13,00,10.90
2020,12,06,13,01,10.90
2020,12,06,13,02,10.90
2020,12,06,13,03,10.90
2020,12,06,13,04,10.90
2020,12,06,13,05,10.90
2020,12,06,13,06,10.90
2020,12,06,13,07,10.80
2020,12,06,13,08,10.80
2020,12,06,13,09,10.80
2020,12,06,13,10,10.80
2020,12,06,13,11,10.80
2020,12,06,13,12,10.80
2020,12,06,13,13,10.80
2020,12,06,13,14,10.80
2020,12,06,13,15,10.80
2020,12,06,13,16,10.70
2020,12,06,13,17,10.70
2020,12,06,13,18,10.70
2020,12,06,13,19,10.60
2020,12,06,13,20,10.60
2020,12,06,13,21,10.60
2020,12,06,13,22,10.60
2020,12,06,13,23,10.60
2020,12,06,13,24,10.60
2020,12,06,13,25,10.60
2020,12,06,13,26,10.50
2020,12,06,13,27,10.50
2020,12,06,13,28,10.50
2020,12,06,13,29,10.40
2020,12,06,13,30,10.40
2020,12,06,13,31,10.40
2020,12,06,13,32,10.30
2020,12,06,13,33,10.30
2020,12,06,13,34,10.30
2020,12,06,13,35,10.30
2020,12,06,13,36,10.30
2020,12,06,13,37,10.20
2020,12,06,13,38,10.20
2020,12,06,13,39,10.20
2020,12,06,13,40,10.20
2020,12,06,13,41,10.20
2020,12,06,13,42,10.20
2020,12,06,13,43,10.10
2020,12,06,13,44,10.10
2020,12,06,13,45,10.10
2020,12,06,13,46,10.10
2020,12,06,13,47,10.10
2020,12,06,13,48,10.10
2020,12,06,13,49,10.10
2020,12,06,13,50,10.10
2020,12,06,13,51,10.00
2020,12,06,13,52,10.00
2020,12,06,13,53,10.00
2020,12,06,13,54,10.00
2020,12,06,13,55,10.00
2020,12,06,13,56,10.00
2020,12,06,13,57,10.00
2020,12,06,13,58,10.00
2020,12,06,13,59,10.00
2020,12,06,14,00,10.10
2020,12,06,14,01,10.00
2020,12,06,14,02,10.00
2020,12,06,14,03,10.10
2020,12,06,14,04,10.10
2020,12,06,14,05,10.10
2020,12,06,14,06,10.10
2020,12,06,14,07,10.10
2020,12,06,14,08,10.10
2020,12,06,14,09,10.10
2020,12,06,14,10,10.10
2020,12,06,14,11,10.10
2020,12,06,14,12,10.10
2020,12,06,14,13,10.10
2020,12,06,14,14,10.10
2020,12,06,14,15,10.10
2020,12,06,14,16,10.10
2020,12,06,14,17,10.10
2020,12,06,14,18,10.10
2020,12,06,14,19,10.10
2020,12,06,14,20,10.10
2020,12,06,14,21,10.10
2020,12,06,14,22,10.10
2020,12,06,14,23,10.10
2020,12,06,14,24,10.10
2020,12,06,14,25,10.10
2020,12,06,14,26,10.10
2020,12,06,14,27,10.10
2020,12,06,14,28,10.10
2020,12,06,14,29,10.10
2020,12,06,14,30,10.10
2020,12,06,14,31,10.10
2020,12,06,14,32,10.10
2020,12,06,14,33,10.10
2020,12,06,14,34,10.10
2020,12,06,14,35,10.10
2020,12,06,14,36,10.10
2020,12,06,14,37,10.20
2020,12,06,14,38,10.20
2020,12,06,14,39,10.20
2020,12,06,14,40,10.20
2020,12,06,14,41,10.20
2020,12,06,14,42,10.20
2020,12,06,14,43,10.20
2020,12,06,14,44,10.20
2020,12,06,14,45,10.20
2020,12,06,14,46,10.20
2020,12,06,14,47,10.20
2020,12,06,14,48,10.20
2020,12,06,14,49,10.20
2020,12,06,14,50,10.30
2020,12,06,14,51,10.30
2020,12,06,14,52,10.30
2020,12,06,14,53,10.30
2020,12,06,14,54,10.30
2020,12,06,14,55,10.30
2020,12,06,14,56,10.30
2020,12,06,14,57,10.30
2020,12,06,14,58,10.30
2020,12,06,14,59,10.30
2020,12,06,15,00,10.30
2020,12,06,15,01,10.30
2020,12,06,15,02,10.30
2020,12,06,15,03,10.30
2020,12,06,15,04,10.30
2020,12,06,15,05,10.30
2020,12,06,15,06,10.30
2020,12,06,15,07,10.30
2020,12,06,15,08,10.30
2020,12,06,15,09,10.30
2020,12,06,15,10,10.30
2020,12,06,15,11,10.20
2020,12,06,15,12,10.20
2020,12,06,15,13,10.20
2020,12,06,15,14,10.20
2020,12,06,15,15,10.20
2020,12,06,15,16,10.20
2020,12,06,15,17,10.20
2020,12,06,15,18,10.30
2020,12,06,15,19,10.30
2020,12,06,15,20,10.30
2020,12,06,15,21,10.30
2020,12,06,15,22,10.30
2020,12,06,15,23,10.30
2020,12,06,15,24,10.30
2020,12,06,15,25,10.30
2020,12,06,15,26,10.30
2020,12,06,15,27,10.30
2020,12,06,15,28,10.30
2020,12,06,15,29,10.30
2020,12,06,15,30,10.30
2020,12,06,15,31,10.30
2020,12,06,15,32,10.30
2020,12,06,15,33,10.30
2020,12,06,15,34,10.30
2020,12,06,15,35,10.30
2020,12,06,15,36,10.20
2020,12,06,15,37,10.20
2020,12,06,15,38,10.20
2020,12,06,15,39,10.10
2020,12,06,15,40,10.00
2020,12,06,15,41,12.10
2020,12,06,15,42,12.10
2020,12,06,15,43,12.10
2020,12,06,15,44,12.10
2020,12,06,15,45,12.10
2020,12,06,15,46,12.10
2020,12,06,15,47,12.10
2020,12,06,15,48,12.10
2020,12,06,15,49,12.10
2020,12,06,15,50,12.10
2020,12,06,15,51,12.10
2020,12,06,15,52,12.10
2020,12,06,15,53,12.10
